Time,TemperatureF,DewpointF,PressureIn,WindDirection,WindDirectionDegrees,WindSpeedMPH,WindSpeedGustMPH,Humidity,HourlyPrecipIn,Conditions,Clouds,dailyrainin,SoftwareType,DateUTC
2013-02-11 00:02:00,34.0,24.0,30.00,NW,304,6.0,16.0,67,0.00,,,0.03,,2013-02-11 06:02:00,
2013-02-11 00:11:00,34.0,24.0,30.00,NW,304,6.0,16.0,67,0.00,,,0.03,,2013-02-11 06:11:00,
2013-02-11 00:21:00,34.0,24.0,30.01,WNW,292,0.0,11.0,67,0.00,,,0.03,,2013-02-11 06:21:00,
2013-02-11 00:32:00,33.0,24.0,30.02,WNW,287,2.0,6.0,68,0.00,,,0.03,,2013-02-11 06:32:00,
2013-02-11 00:42:00,33.0,24.0,30.02,WNW,287,2.0,6.0,68,0.00,,,0.03,,2013-02-11 06:42:00,
2013-02-11 00:51:00,33.0,24.0,30.02,WNW,287,2.0,6.0,68,0.00,,,0.03,,2013-02-11 06:51:00,
2013-02-11 01:01:00,31.0,23.0,30.04,WSW,246,0.0,0.0,72,0.00,,,0.00,,2013-02-11 07:01:00,
2013-02-11 01:11:00,31.0,23.0,30.04,WNW,288,0.0,0.0,73,0.00,,,0.00,,2013-02-11 07:11:00,
2013-02-11 01:21:00,31.0,23.0,30.04,WNW,288,0.0,0.0,73,0.00,,,0.00,,2013-02-11 07:21:00,
2013-02-11 01:32:00,31.0,23.0,30.04,WNW,301,0.0,0.0,73,0.00,,,0.00,,2013-02-11 07:32:00,
2013-02-11 01:41:00,31.0,23.0,30.05,WNW,287,0.0,0.0,73,0.00,,,0.00,,2013-02-11 07:41:00,
2013-02-11 01:52:00,31.0,23.0,30.05,WNW,287,0.0,0.0,73,0.00,,,0.00,,2013-02-11 07:52:00,
2013-02-11 02:01:00,31.0,23.0,30.05,WNW,288,0.0,1.0,73,0.00,,,0.00,,2013-02-11 08:01:00,
2013-02-11 02:11:00,30.0,23.0,30.03,WNW,288,0.0,0.0,74,0.00,,,0.00,,2013-02-11 08:11:00,
2013-02-11 02:21:00,30.0,23.0,30.03,WNW,288,0.0,0.0,74,0.00,,,0.00,,2013-02-11 08:21:00,
2013-02-11 02:31:00,30.0,23.0,30.03,WNW,288,0.0,0.0,74,0.00,,,0.00,,2013-02-11 08:31:00,
2013-02-11 02:42:00,29.0,22.0,30.05,WNW,288,0.0,0.0,75,0.00,,,0.00,,2013-02-11 08:42:00,
2013-02-11 02:52:00,29.0,22.0,30.05,WNW,288,0.0,0.0,75,0.00,,,0.00,,2013-02-11 08:52:00,
2013-02-11 03:01:00,29.0,22.0,30.05,WNW,288,0.0,0.0,75,0.00,,,0.00,,2013-02-11 09:01:00,
2013-02-11 03:12:00,29.0,22.0,30.05,WNW,288,0.0,0.0,75,0.00,,,0.00,,2013-02-11 09:12:00,
2013-02-11 03:21:00,29.0,22.0,30.06,WNW,287,0.0,0.0,76,0.00,,,0.00,,2013-02-11 09:21:00,
2013-02-11 03:32:00,28.0,22.0,30.06,WNW,287,0.0,0.0,77,0.00,,,0.00,,2013-02-11 09:32:00,
2013-02-11 03:41:00,28.0,22.0,30.06,WNW,287,0.0,0.0,77,0.00,,,0.00,,2013-02-11 09:41:00,
2013-02-11 03:51:00,29.0,23.0,30.06,WNW,299,0.0,0.0,77,0.00,,,0.00,,2013-02-11 09:51:00,
2013-02-11 04:01:00,28.0,22.0,30.06,NW,310,0.0,0.0,78,0.00,,,0.00,,2013-02-11 10:01:00,
2013-02-11 04:11:00,28.0,22.0,30.06,NW,310,0.0,0.0,78,0.00,,,0.00,,2013-02-11 10:11:00,
2013-02-11 04:21:00,28.0,22.0,30.06,NW,310,0.0,0.0,78,0.00,,,0.00,,2013-02-11 10:21:00,
2013-02-11 04:31:00,28.0,22.0,30.07,NW,310,0.0,0.0,78,0.00,,,0.00,,2013-02-11 10:31:00,
2013-02-11 04:42:00,28.0,22.0,30.07,NW,310,0.0,0.0,78,0.00,,,0.00,,2013-02-11 10:42:00,
2013-02-11 04:51:00,28.0,22.0,30.07,NW,310,0.0,0.0,78,0.00,,,0.00,,2013-02-11 10:51:00,
2013-02-11 05:01:00,28.0,22.0,30.07,WNW,290,0.0,0.0,77,0.00,,,0.00,,2013-02-11 11:01:00,
2013-02-11 05:11:00,28.0,22.0,30.07,WNW,290,0.0,0.0,77,0.00,,,0.00,,2013-02-11 11:11:00,
2013-02-11 05:22:00,29.0,22.0,30.07,NW,321,1.0,7.0,76,0.00,,,0.00,,2013-02-11 11:22:00,
2013-02-11 05:32:00,29.0,22.0,30.08,NW,321,1.0,6.0,74,0.00,,,0.00,,2013-02-11 11:32:00,
2013-02-11 05:42:00,30.0,22.0,30.08,WNW,302,3.0,7.0,72,0.00,,,0.00,,2013-02-11 11:42:00,
2013-02-11 05:52:00,30.0,22.0,30.08,WNW,302,3.0,7.0,72,0.00,,,0.00,,2013-02-11 11:52:00,
2013-02-11 06:03:00,30.0,21.0,30.09,NW,310,6.0,13.0,70,0.00,,,0.00,,2013-02-11 12:03:00,
2013-02-11 06:12:00,30.0,21.0,30.09,NW,310,6.0,13.0,70,0.00,,,0.00,,2013-02-11 12:12:00,
2013-02-11 06:22:00,30.0,21.0,30.09,NW,325,4.0,12.0,69,0.00,,,0.00,,2013-02-11 12:22:00,
2013-02-11 06:32:00,30.0,21.0,30.10,NW,319,4.0,7.0,69,0.00,,,0.00,,2013-02-11 12:32:00,
2013-02-11 06:42:00,30.0,21.0,30.11,NW,318,2.0,7.0,70,0.00,,,0.00,,2013-02-11 12:42:00,
2013-02-11 06:52:00,30.0,21.0,30.11,NW,318,2.0,7.0,70,0.00,,,0.00,,2013-02-11 12:52:00,
2013-02-11 07:02:00,29.0,21.0,30.12,WNW,302,0.0,6.0,71,0.00,,,0.00,,2013-02-11 13:02:00,
2013-02-11 07:12:00,28.0,20.0,30.12,WNW,302,0.0,0.0,73,0.00,,,0.00,,2013-02-11 13:12:00,
2013-02-11 07:22:00,28.0,20.0,30.12,WNW,302,0.0,0.0,73,0.00,,,0.00,,2013-02-11 13:22:00,
2013-02-11 07:32:00,27.0,20.0,30.13,WNW,302,0.0,0.0,75,0.00,,,0.00,,2013-02-11 13:32:00,
2013-02-11 07:42:00,27.0,20.0,30.13,WNW,302,0.0,0.0,75,0.00,,,0.00,,2013-02-11 13:42:00,
2013-02-11 07:52:00,26.0,20.0,30.14,WNW,302,0.0,0.0,77,0.00,,,0.00,,2013-02-11 13:52:00,
2013-02-11 08:02:00,25.0,19.0,30.14,WNW,302,0.0,0.0,79,0.00,,,0.00,,2013-02-11 14:02:00,
2013-02-11 08:11:00,25.0,19.0,30.14,WNW,302,0.0,0.0,79,0.00,,,0.00,,2013-02-11 14:11:00,
2013-02-11 08:22:00,25.0,19.0,30.14,WNW,302,0.0,0.0,79,0.00,,,0.00,,2013-02-11 14:22:00,
2013-02-11 08:33:00,25.0,19.0,30.14,WNW,302,0.0,0.0,79,0.00,,,0.00,,2013-02-11 14:33:00,
2013-02-11 11:22:00,36.0,22.0,30.20,North,351,4.0,15.0,56,0.00,,,0.00,,2013-02-11 17:22:00,
2013-02-11 11:32:00,37.0,22.0,30.19,NE,38,2.0,12.0,55,0.00,,,0.00,,2013-02-11 17:32:00,
2013-02-11 11:42:00,37.0,22.0,30.19,NE,38,2.0,12.0,55,0.00,,,0.00,,2013-02-11 17:42:00,
2013-02-11 11:52:00,37.0,21.0,30.20,NW,310,6.0,12.0,53,0.00,,,0.00,,2013-02-11 17:52:00,
2013-02-11 12:02:00,38.0,22.0,30.20,NNW,331,5.0,11.0,52,0.00,,,0.00,,2013-02-11 18:02:00,
2013-02-11 12:11:00,38.0,22.0,30.20,NNW,331,5.0,11.0,52,0.00,,,0.00,,2013-02-11 18:11:00,
2013-02-11 12:21:00,39.0,23.0,30.19,NNE,17,4.0,9.0,53,0.00,,,0.00,,2013-02-11 18:21:00,
2013-02-11 12:32:00,40.0,23.0,30.19,NNW,340,6.0,12.0,51,0.00,,,0.00,,2013-02-11 18:32:00,
2013-02-11 12:42:00,39.0,21.0,30.19,WNW,298,7.0,12.0,49,0.00,,,0.00,,2013-02-11 18:42:00,
2013-02-11 12:52:00,39.0,21.0,30.19,WNW,298,7.0,12.0,49,0.00,,,0.00,,2013-02-11 18:52:00,
2013-02-11 13:02:00,41.0,24.0,30.17,NW,321,3.0,7.0,51,0.00,,,0.00,,2013-02-11 19:02:00,
2013-02-11 13:11:00,42.0,24.0,30.16,WNW,296,1.0,7.0,49,0.00,,,0.00,,2013-02-11 19:11:00,
2013-02-11 13:21:00,42.0,24.0,30.16,WNW,296,1.0,7.0,49,0.00,,,0.00,,2013-02-11 19:21:00,
2013-02-11 13:32:00,42.0,24.0,30.15,NE,55,1.0,9.0,48,0.00,,,0.00,,2013-02-11 19:32:00,
2013-02-11 13:42:00,42.0,24.0,30.15,NE,55,1.0,9.0,48,0.00,,,0.00,,2013-02-11 19:42:00,
2013-02-11 13:51:00,41.0,23.0,30.15,NW,325,4.0,10.0,48,0.00,,,0.00,,2013-02-11 19:51:00,
2013-02-11 14:01:00,43.0,23.0,30.15,WNW,299,3.0,10.0,45,0.00,,,0.00,,2013-02-11 20:01:00,
2013-02-11 14:11:00,42.0,24.0,30.14,North,360,0.0,10.0,48,0.00,,,0.00,,2013-02-11 20:11:00,
2013-02-11 14:21:00,42.0,24.0,30.14,North,360,0.0,10.0,48,0.00,,,0.00,,2013-02-11 20:21:00,
2013-02-11 14:32:00,43.0,24.0,30.13,NW,304,5.0,12.0,46,0.00,,,0.00,,2013-02-11 20:32:00,
2013-02-11 14:42:00,43.0,24.0,30.13,NW,323,5.0,11.0,47,0.00,,,0.00,,2013-02-11 20:42:00,
2013-02-11 14:52:00,43.0,24.0,30.13,NW,323,5.0,11.0,47,0.00,,,0.00,,2013-02-11 20:52:00,
2013-02-11 15:02:00,43.0,23.0,30.12,NNW,340,0.0,10.0,44,0.00,,,0.00,,2013-02-11 21:02:00,
2013-02-11 15:11:00,44.0,23.0,30.12,NE,36,2.0,8.0,43,0.00,,,0.00,,2013-02-11 21:11:00,
2013-02-11 15:21:00,44.0,23.0,30.12,NE,36,2.0,8.0,43,0.00,,,0.00,,2013-02-11 21:21:00,
2013-02-11 15:32:00,44.0,24.0,30.11,ENE,71,0.0,3.0,45,0.00,,,0.00,,2013-02-11 21:32:00,
2013-02-11 15:42:00,44.0,24.0,30.11,ENE,71,0.0,3.0,45,0.00,,,0.00,,2013-02-11 21:42:00,
2013-02-11 15:52:00,45.0,23.0,30.11,WNW,299,0.0,7.0,42,0.00,,,0.00,,2013-02-11 21:52:00,
2013-02-11 16:02:00,44.0,21.0,30.10,WNW,301,1.0,7.0,40,0.00,,,0.00,,2013-02-11 22:02:00,
2013-02-11 16:11:00,45.0,23.0,30.10,North,10,0.0,0.0,41,0.00,,,0.00,,2013-02-11 22:11:00,
2013-02-11 16:22:00,45.0,23.0,30.10,North,10,0.0,0.0,41,0.00,,,0.00,,2013-02-11 22:22:00,
2013-02-11 16:32:00,45.0,24.0,30.10,NW,325,0.0,6.0,43,0.00,,,0.00,,2013-02-11 22:32:00,
2013-02-11 16:42:00,45.0,24.0,30.10,NW,325,0.0,6.0,43,0.00,,,0.00,,2013-02-11 22:42:00,
2013-02-11 16:52:00,45.0,23.0,30.10,NW,321,0.0,1.0,41,0.00,,,0.00,,2013-02-11 22:52:00,
2013-02-11 17:02:00,45.0,23.0,30.09,NW,321,0.0,0.0,42,0.00,,,0.00,,2013-02-11 23:02:00,
2013-02-11 17:11:00,45.0,23.0,30.09,NW,321,0.0,0.0,42,0.00,,,0.00,,2013-02-11 23:11:00,
2013-02-11 17:21:00,44.0,22.0,30.09,NNW,332,0.0,7.0,42,0.00,,,0.00,,2013-02-11 23:21:00,
2013-02-11 17:32:00,45.0,23.0,30.09,NNW,332,0.0,0.0,42,0.00,,,0.00,,2013-02-11 23:32:00,
2013-02-11 17:42:00,45.0,23.0,30.09,NNW,332,0.0,0.0,42,0.00,,,0.00,,2013-02-11 23:42:00,
2013-02-11 17:52:00,44.0,23.0,30.09,NNW,332,0.0,0.0,43,0.00,,,0.00,,2013-02-11 23:52:00,
2013-02-11 18:01:00,42.0,23.0,30.09,NNW,332,0.0,0.0,46,0.00,,,0.00,,2013-02-12 00:01:00,
2013-02-11 18:11:00,42.0,23.0,30.09,NNW,332,0.0,0.0,46,0.00,,,0.00,,2013-02-12 00:11:00,
2013-02-11 18:22:00,41.0,23.0,30.09,NNW,331,0.0,0.0,48,0.00,,,0.00,,2013-02-12 00:22:00,
2013-02-11 18:32:00,40.0,22.0,30.09,NNW,331,0.0,0.0,49,0.00,,,0.00,,2013-02-12 00:32:00,
2013-02-11 18:42:00,40.0,22.0,30.09,NNW,331,0.0,0.0,49,0.00,,,0.00,,2013-02-12 00:42:00,
2013-02-11 18:52:00,38.0,24.0,30.10,NNW,332,0.0,0.0,56,0.00,,,0.00,,2013-02-12 00:52:00,
2013-02-11 19:02:00,36.0,23.0,30.10,NNW,331,0.0,0.0,59,0.00,,,0.00,,2013-02-12 01:02:00,
2013-02-11 19:11:00,36.0,23.0,30.10,NNW,331,0.0,0.0,59,0.00,,,0.00,,2013-02-12 01:11:00,
2013-02-11 19:21:00,33.0,23.0,30.10,NNW,332,0.0,0.0,65,0.00,,,0.00,,2013-02-12 01:21:00,
2013-02-11 19:32:00,31.0,24.0,30.11,NNW,332,0.0,0.0,74,0.00,,,0.00,,2013-02-12 01:32:00,
2013-02-11 19:51:00,30.0,22.0,30.11,NNW,332,0.0,0.0,71,0.00,,,0.00,,2013-02-12 01:51:00,
2013-02-11 20:01:00,30.0,24.0,30.11,NNW,332,0.0,0.0,77,0.00,,,0.00,,2013-02-12 02:01:00,
2013-02-11 20:12:00,29.0,23.0,30.11,NNW,332,0.0,0.0,77,0.00,,,0.00,,2013-02-12 02:12:00,
2013-02-11 20:21:00,29.0,23.0,30.11,NNW,332,0.0,0.0,77,0.00,,,0.00,,2013-02-12 02:21:00,
2013-02-11 20:32:00,29.0,22.0,30.12,NNW,331,0.0,0.0,76,0.00,,,0.00,,2013-02-12 02:32:00,
2013-02-11 20:52:00,29.0,23.0,30.11,NNW,332,0.0,0.0,79,0.00,,,0.00,,2013-02-12 02:52:00,
2013-02-11 21:02:00,29.0,24.0,30.12,NNW,332,0.0,0.0,81,0.00,,,0.00,,2013-02-12 03:02:00,
2013-02-11 21:11:00,28.0,23.0,30.12,NNW,331,0.0,0.0,80,0.00,,,0.00,,2013-02-12 03:11:00,
2013-02-11 21:21:00,28.0,23.0,30.12,NNW,331,0.0,0.0,80,0.00,,,0.00,,2013-02-12 03:21:00,
2013-02-11 21:31:00,28.0,23.0,30.13,NNW,331,0.0,0.0,81,0.00,,,0.00,,2013-02-12 03:31:00,
2013-02-11 21:42:00,28.0,23.0,30.14,NNW,331,0.0,0.0,82,0.00,,,0.00,,2013-02-12 03:42:00,
2013-02-11 21:51:00,28.0,23.0,30.14,NNW,331,0.0,0.0,82,0.00,,,0.00,,2013-02-12 03:51:00,
2013-02-11 22:01:00,28.0,24.0,30.14,NNW,332,0.0,0.0,83,0.00,,,0.00,,2013-02-12 04:01:00,
2013-02-11 22:11:00,28.0,24.0,30.14,NNW,332,0.0,0.0,83,0.00,,,0.00,,2013-02-12 04:11:00,
2013-02-11 22:21:00,28.0,23.0,30.15,NNW,331,0.0,0.0,82,0.00,,,0.00,,2013-02-12 04:21:00,
2013-02-11 22:31:00,27.0,22.0,30.15,NNW,331,0.0,0.0,81,0.00,,,0.00,,2013-02-12 04:31:00,
2013-02-11 22:41:00,27.0,22.0,30.15,NNW,331,0.0,0.0,81,0.00,,,0.00,,2013-02-12 04:41:00,
2013-02-11 22:51:00,27.0,23.0,30.15,NNW,332,0.0,0.0,83,0.00,,,0.00,,2013-02-12 04:51:00,
2013-02-11 23:01:00,26.0,22.0,30.15,NNW,331,0.0,0.0,83,0.00,,,0.00,,2013-02-12 05:01:00,
2013-02-11 23:11:00,26.0,22.0,30.15,NNW,332,0.0,0.0,85,0.00,,,0.00,,2013-02-12 05:11:00,
2013-02-11 23:21:00,26.0,22.0,30.15,NNW,332,0.0,0.0,85,0.00,,,0.00,,2013-02-12 05:21:00,
2013-02-11 23:31:00,25.0,21.0,30.15,NNW,332,0.0,0.0,85,0.00,,,0.00,,2013-02-12 05:31:00,
2013-02-11 23:42:00,25.0,21.0,30.15,NNW,332,0.0,0.0,85,0.00,,,0.00,,2013-02-12 05:42:00,
2013-02-11 23:52:00,25.0,21.0,30.16,NNW,331,0.0,0.0,84,0.00,,,0.00,,2013-02-12 05:52:00,